| time (UTC) | temp C | wind direction | speed KPH | gust KPH | rain 1hr cm | rain 24hr cm | rain mn cm | humidity % | barometer mb |
| 20260507003035 | 24 | 221 | 4.8 | 8.0 | 0.00 | 0.00 | 0.00 | 64 | 1011.0 |
| 20260507001536 | 24 | 217 | 9.7 | 12.9 | 0.00 | 0.00 | 0.00 | 63 | 1010.6 |
| 20260507000034 | 24 | 223 | 6.4 | 16.1 | 0.00 | 0.00 | 0.00 | 61 | 1010.3 |
| 20260506234530 | 25 | 209 | 9.7 | 19.3 | 0.00 | 0.00 | 0.00 | 59 | 1010.3 |
| 20260506233031 | 25 | 208 | 12.9 | 22.5 | 0.00 | 0.00 | 0.00 | 54 | 1010.2 |
| 20260506231535 | 25 | 207 | 14.5 | 24.1 | 0.00 | 0.00 | 0.00 | 51 | 1010.3 |
| 20260506230033 | 26 | 206 | 16.1 | 27.4 | 0.00 | 0.00 | 0.00 | 50 | 1010.4 |
| 20260506224534 | 26 | 210 | 17.7 | 25.7 | 0.00 | 0.00 | 0.00 | 47 | 1010.7 |
| 20260506223031 | 25 | 232 | 16.1 | 25.7 | 0.00 | 0.00 | 0.00 | 49 | 1010.9 |
| 20260506221534 | 25 | 194 | 16.1 | 24.1 | 0.00 | 0.00 | 0.00 | 51 | 1011.2 |
| 20260506220032 | 25 | 205 | 16.1 | 27.4 | 0.00 | 0.00 | 0.00 | 55 | 1011.4 |
| 20260506214531 | 25 | 205 | 17.7 | 30.6 | 0.00 | 0.00 | 0.00 | 53 | 1011.3 |
| 20260506213037 | 25 | 215 | 17.7 | 33.8 | 0.00 | 0.00 | 0.00 | 54 | 1011.5 |
| 20260506211538 | 24 | 199 | 17.7 | 30.6 | 0.00 | 0.00 | 0.00 | 53 | 1011.7 |
| 20260506210034 | 24 | 213 | 17.7 | 33.8 | 0.00 | 0.00 | 0.00 | 56 | 1011.8 |
| 20260506204536 | 25 | 202 | 12.9 | 24.1 | 0.00 | 0.00 | 0.00 | 60 | 1011.8 |
| 20260506203038 | 25 | 220 | 14.5 | 24.1 | 0.00 | 0.00 | 0.00 | 53 | 1011.9 |
| 20260506201538 | 25 | 198 | 16.1 | 27.4 | 0.00 | 0.00 | 0.00 | 52 | 1012.0 |
| 20260506200038 | 25 | 217 | 14.5 | 24.1 | 0.00 | 0.00 | 0.00 | 54 | 1012.2 |
| 20260506194530 | 24 | 192 | 14.5 | 24.1 | 0.00 | 0.00 | 0.00 | 57 | 1012.5 |
| 20260506193031 | 23 | 219 | 12.9 | 22.5 | 0.00 | 0.00 | 0.00 | 59 | 1012.6 |
| 20260506191530 | 23 | 229 | 14.5 | 22.5 | 0.00 | 0.00 | 0.00 | 58 | 1012.7 |
| 20260506190038 | 23 | 214 | 11.3 | 24.1 | 0.00 | 0.00 | 0.00 | 57 | 1012.8 |
| 20260506184536 | 23 | 213 | 12.9 | 24.1 | 0.00 | 0.00 | 0.00 | 60 | 1012.9 |
| 20260506183032 | 22 | 209 | 14.5 | 24.1 | 0.00 | 0.00 | 0.00 | 60 | 1012.9 |
| 20260506181530 | 22 | 223 | 11.3 | 19.3 | 0.00 | 0.00 | 0.00 | 60 | 1013.0 |
| 20260506180032 | 22 | 193 | 11.3 | 22.5 | 0.00 | 0.00 | 0.00 | 59 | 1013.1 |
| 20260506174531 | 21 | 216 | 12.9 | 22.5 | 0.00 | 0.00 | 0.00 | 61 | 1013.2 |
| 20260506173045 | 21 | 198 | 11.3 | 22.5 | 0.00 | 0.00 | 0.00 | 64 | 1013.2 |
| 20260506171530 | 21 | 203 | 12.9 | 22.5 | 0.00 | 0.00 | 0.00 | 64 | 1013.4 |
| 20260506170031 | 20 | 206 | 11.3 | 19.3 | 0.00 | 0.00 | 0.00 | 66 | 1013.5 |
| 20260506164534 | 20 | 202 | 12.9 | 17.7 | 0.00 | 0.00 | 0.00 | 65 | 1013.6 |
| 20260506163037 | 20 | 202 | 12.9 | 19.3 | 0.00 | 0.00 | 0.00 | 67 | 1013.5 |
| 20260506161531 | 19 | 222 | 9.7 | 14.5 | 0.00 | 0.00 | 0.00 | 68 | 1013.6 |
| 20260506160032 | 18 | 191 | 8.0 | 14.5 | 0.00 | 0.00 | 0.00 | 71 | 1013.6 |
| 20260506154534 | 18 | 184 | 9.7 | 17.7 | 0.00 | 0.00 | 0.00 | 72 | 1013.4 |
| 20260506153030 | 17 | 116 | 6.4 | 12.9 | 0.00 | 0.00 | 0.00 | 77 | 1013.5 |
| 20260506151536 | 16 | 101 | 4.8 | 11.3 | 0.00 | 0.00 | 0.00 | 79 | 1013.3 |
| 20260506150030 | 16 | 94 | 3.2 | 9.7 | 0.00 | 0.00 | 0.00 | 80 | 1013.4 |
| 20260506144538 | 15 | 85 | 4.8 | 9.7 | 0.00 | 0.00 | 0.00 | 81 | 1013.3 |
| 20260506143033 | 15 | 85 | 3.2 | 9.7 | 0.00 | 0.00 | 0.00 | 80 | 1013.4 |
| 20260506141532 | 14 | 0 | 0.0 | 6.4 | 0.00 | 0.00 | 0.00 | 80 | 1013.2 |
| 20260506140033 | 14 | 85 | 1.6 | 4.8 | 0.00 | 0.00 | 0.00 | 80 | 1013.1 |
| 20260506134531 | 14 | 85 | 0.0 | 4.8 | 0.00 | 0.00 | 0.00 | 81 | 1012.9 |
| 20260506133032 | 13 | 0 | 0.0 | 0.0 | 0.00 | 0.00 | 0.00 | 81 | 1012.7 |
| 20260506131541 | 13 | 0 | 0.0 | 0.0 | 0.00 | 0.00 | 0.00 | 82 | 1012.7 |
| 20260506130037 | 12 | 0 | 0.0 | 0.0 | 0.00 | 0.00 | 0.00 | 82 | 1012.5 |
| 20260506124530 | 12 | 0 | 0.0 | 0.0 | 0.00 | 0.00 | 0.00 | 82 | 1012.4 |
| 20260506123030 | 12 | 0 | 0.0 | 0.0 | 0.00 | 0.00 | 0.00 | 80 | 1012.1 |
| 20260506121533 | 12 | 0 | 0.0 | 0.0 | 0.00 | 0.00 | 0.00 | 79 | 1012.0 |
| 20260506120034 | 13 | 0 | 0.0 | 0.0 | 0.00 | 0.00 | 0.00 | 77 | 1011.8 |
| 20260506114535 | 13 | 0 | 0.0 | 0.0 | 0.00 | 0.00 | 0.00 | 77 | 1011.6 |
| 20260506113030 | 13 | 0 | 0.0 | 0.0 | 0.00 | 0.00 | 0.00 | 76 | 1011.6 |
| 20260506111529 | 13 | 0 | 0.0 | 0.0 | 0.00 | 0.00 | 0.00 | 74 | 1011.4 |
| 20260506110034 | 14 | 0 | 0.0 | 0.0 | 0.00 | 0.00 | 0.00 | 73 | 1011.4 |
| 20260506104531 | 14 | 0 | 0.0 | 0.0 | 0.00 | 0.00 | 0.00 | 73 | 1011.3 |
| 20260506103043 | 14 | 0 | 0.0 | 0.0 | 0.00 | 0.00 | 0.00 | 73 | 1011.1 |
| 20260506101543 | 14 | 0 | 0.0 | 0.0 | 0.00 | 0.00 | 0.00 | 72 | 1011.1 |
| 20260506100045 | 14 | 0 | 0.0 | 0.0 | 0.00 | 0.00 | 0.00 | 71 | 1011.1 |
| 20260506094530 | 15 | 0 | 0.0 | 0.0 | 0.00 | 0.00 | 0.00 | 69 | 1011.0 |
| 20260506093040 | 15 | 0 | 0.0 | 0.0 | 0.00 | 0.00 | 0.00 | 68 | 1011.1 |
| 20260506091535 | 16 | 0 | 0.0 | 0.0 | 0.00 | 0.00 | 0.00 | 66 | 1011.2 |
| 20260506090032 | 16 | 0 | 0.0 | 0.0 | 0.00 | 0.00 | 0.00 | 65 | 1011.1 |
| 20260506084532 | 16 | 0 | 0.0 | 0.0 | 0.00 | 0.00 | 0.00 | 65 | 1011.0 |
| 20260506083032 | 16 | 0 | 0.0 | 0.0 | 0.00 | 0.00 | 0.00 | 66 | 1010.9 |
| 20260506081539 | 16 | 0 | 0.0 | 0.0 | 0.00 | 0.00 | 0.00 | 66 | 1010.9 |
| 20260506073042 | 16 | 0 | 0.0 | 0.0 | 0.00 | 0.00 | 0.00 | 69 | 1010.7 |
| 20260506071537 | 16 | 0 | 0.0 | 0.0 | 0.00 | 0.00 | 0.00 | 70 | 1010.8 |
| 20260506061531 | 18 | 0 | 0.0 | 1.6 | 0.00 | 0.00 | 0.00 | 66 | 1010.4 |
| 20260506044604 | 19 | 85 | 1.6 | 4.8 | 0.00 | 0.00 | 0.00 | 63 | 1010.1 |
| 20260506043032 | 20 | 0 | 0.0 | 0.0 | 0.00 | 0.00 | 0.00 | 61 | 1010.0 |
| 20260506041531 | 21 | 0 | 0.0 | 1.6 | 0.00 | 0.00 | 0.00 | 55 | 1009.9 |
| 20260506040031 | 21 | 85 | 1.6 | 4.8 | 0.00 | 0.00 | 0.00 | 54 | 1009.7 |
| 20260506034559 | 21 | 0 | 0.0 | 0.0 | 0.00 | 0.00 | 0.00 | 57 | 1009.6 |
| 20260506033032 | 21 | 0 | 0.0 | 0.0 | 0.00 | 0.00 | 0.00 | 57 | 1009.5 |
| 20260506031531 | 22 | 0 | 0.0 | 0.0 | 0.00 | 0.00 | 0.00 | 57 | 1009.5 |
| 20260506030030 | 22 | 0 | 0.0 | 3.2 | 0.00 | 0.00 | 0.00 | 57 | 1009.4 |
| 20260506024533 | 23 | 0 | 1.6 | 4.8 | 0.00 | 0.00 | 0.00 | 56 | 1009.4 |
| 20260506023035 | 24 | 85 | 3.2 | 9.7 | 0.00 | 0.00 | 0.00 | 54 | 1009.2 |
| 20260506021533 | 25 | 76 | 1.6 | 4.8 | 0.00 | 0.00 | 0.00 | 49 | 1009.4 |
| 20260506020031 | 27 | 76 | 3.2 | 8.0 | 0.00 | 0.00 | 0.00 | 44 | 1009.2 |
| 20260506014533 | 28 | 58 | 1.6 | 3.2 | 0.00 | 0.00 | 0.00 | 33 | 1009.2 |
| 20260506013038 | 28 | 0 | 0.0 | 6.4 | 0.00 | 0.00 | 0.00 | 32 | 1009.2 |
| 20260506011532 | 28 | 0 | 0.0 | 4.8 | 0.00 | 0.00 | 0.00 | 29 | 1009.2 |
| 20260506010032 | 28 | 60 | 0.0 | 6.4 | 0.00 | 0.00 | 0.00 | 29 | 1009.2 |
| 20260506004556 | 28 | 57 | 1.6 | 9.7 | 0.00 | 0.00 | 0.00 | 29 | 1009.4 |